Content
SEND FEEDBACK

Daily
Averages
Monthly
Summary
United States of America

HILLSIDE, NEW JERSEY


Home > North America > United States > New Jersey
Elevation: 40 feet     Latitude: 40 40N     Longitude: 074 14W

WEATHER
 
SELECT A DAY
Number of Records: 189,786;   Date Range: 1/1/95 - 8/30/14
 
SHARE

PRINT THIS DATA

[ ← Previous Day ]
WEATHER ALMANAC - APRIL 28, 2013
[ Next Day → ]
[ °C ]   °F
Weather ElementAverageHighLow
Temperature58.6 °F68 °F (2:51 pm)48 °F (5:51 am)
Dewpoint34.4 °F41 °F (11:51 pm)28.9 °F (2:51 pm)
Humidity42 %66 % (6:51 am)23 % (2:51 pm)
Barometer30.26 in30.32 in (8:51 am)30.21 in (5:51 pm)
Wind Speed6.1 mph13.8 mph (12:51 pm)
Wind Gust20.7 mph (1:51 pm)
Weather ElementAverage
Visibility10 mi
Wind DirectionESE (123.9 °)

Weather ElementTotal
Precipitation---
Heating Degree Days7 (Base 65)
Growing Degree Days8 (Base 50)
Averaged from 23 records on April 28, 2013
WEATHER CONDITIONS BREAKOUT
WIND DIRECTION BREAKOUT
WEATHER BY HOUR - APRIL 28, 2013
[ °C ]   °F
Local TimeTemperatureDewpointHumidityBarometerVisibilityWind DirectionWind SpeedGust SpeedPrecipitationEventsConditions
1:51 AM53.1 °F30.0 °F41 %30.30 in10.0 miSouth (170°)4.6 mphPartly Cloudy
2:51 AM52.0 °F32.0 °F47 %30.28 in10.0 miCalmPartly Cloudy
3:51 AM51.1 °F34.0 °F52 %30.28 in10.0 miSouth (170°)3.5 mphScattered Clouds
4:51 AM50.0 °F34.0 °F54 %30.28 in10.0 miSSE (160°)3.5 mphScattered Clouds
5:51 AM48.0 °F36.0 °F63 %30.28 in10.0 miSouth (190°)3.5 mphPartly Cloudy
6:51 AM48.9 °F37.9 °F66 %30.29 in10.0 miSSW (210°)3.5 mphScattered Clouds
7:51 AM53.1 °F37.9 °F57 %30.31 in10.0 miCalmScattered Clouds
8:51 AM55.0 °F39.0 °F55 %30.32 in10.0 miCalmScattered Clouds
9:51 AM61.0 °F39.9 °F46 %30.31 in10.0 miCalmMostly Cloudy
10:51 AM64.0 °F39.9 °F41 %30.30 in10.0 miVariable3.5 mphMostly Cloudy
11:51 AM66.9 °F39.0 °F36 %30.29 in10.0 miSouth (190°)6.9 mphMostly Cloudy
12:51 PM66.9 °F39.0 °F36 %30.27 in10.0 miSE (140°)13.8 mph19.6 mphMostly Cloudy
1:51 PM64.9 °F30.0 °F27 %30.27 in10.0 miSE (140°)13.8 mph20.7 mphMostly Cloudy
2:51 PM68.0 °F28.9 °F23 %30.25 in10.0 miSE (140°)11.5 mphOvercast
3:51 PM64.9 °F32.0 °F29 %30.24 in10.0 miSE (130°)11.5 mphMostly Cloudy
4:51 PM64.0 °F33.1 °F31 %30.22 in10.0 miSE (140°)12.7 mphOvercast
5:51 PM63.0 °F32.0 °F31 %30.21 in10.0 miSE (140°)10.4 mph17.3 mphOvercast
6:51 PM61.0 °F32.0 °F34 %30.21 in10.0 miSE (140°)8.1 mphOvercast
7:51 PM60.1 °F30.0 °F32 %30.21 in10.0 miSSE (150°)8.1 mphOvercast
8:51 PM59.0 °F28.9 °F32 %30.22 in10.0 miSSE (150°)6.9 mphOvercast
9:51 PM57.9 °F30.0 °F35 %30.23 in10.0 miSSE (160°)5.8 mphOvercast
10:51 PM57.9 °F35.1 °F42 %30.24 in10.0 miSouth (170°)5.8 mphOvercast
11:51 PM57.0 °F41.0 °F55 %30.24 in10.0 miSSE (160°)3.5 mphOvercast
Hourly data recorded from KEWR, located miles away from Hillside, New Jersey







STORIES FROM OUR PARTNERS